Location: Unspecified
(47.2333°N, 39.7000°E)
Time: 22:29:10
(UTC+00:00)

ISS - Pass Details

Date: 12 July 2022
Orbit: 412 x 420 km, 51.6° (Epoch: 17 August)

Event Time Altitude Azimuth Distance (km) Brightness Sun altitude
Rises 22:06:19 0° 285° (WNW) 2,358 0.1 -20.3°
Reaches altitude 10° 22:08:30 10° 294° (WNW) 1,496 -0.8 -20.3°
Maximum altitude 22:11:40 37° 4° (N) 666 -2.2 -20.2°
Drops below altitude 10° 22:14:50 10° 74° (ENE) 1,501 -0.6 -20.1°
Sets 22:17:02 0° 82° (E) 2,366 0.3 -20.0°
